Location: Cisewo
(53.3833°N, 14.9000°E)
Time: 11:16:27
(UTC+00:00)

BREEZE-M DEB (TANK) - Pass Details

Date: 18 April 2021
Orbit: 413 x 18316 km, 53.0° (Epoch: 14 May)

Event Time Altitude Azimuth Distance (km) Brightness Sun altitude
Rises 19:50:02 0° 250° (WSW) 3,017 6.5 -14.0°
Reaches altitude 10° 19:51:27 10° 249° (WSW) 2,411 5.9 -14.1°
Maximum altitude 19:56:30 82° 163° (SSE) 1,548 4.4 -14.7°
Drops below altitude 10° 20:19:59 10° 81° (E) 9,822 8.3 -17.1°
Sets 20:36:05 0° 84° (E) 14,265 9.2 -18.6°
